Simultaneous Nadir Overpasses (SNOs) Predictions

Prediction of SNOs near equator between AQUA and NPP Satellite Orbit:

Table of predicted SNOs near equator for the next 14.0 days since TLE Epoch: 6/10/2015
Index Date (AQUA) Time (AQUA) AQUA Lat,Lon Date (NPP) Time (NPP) NPP Lat,Lon Distance(km) Time Diff (sec)
1 06/12/2015 05:32:03 29.98, 116.26 06/12/2015 05:22:03 30.59, 116.73 81.26 600
2 06/12/2015 06:21:26 -29.99, -76.09 06/12/2015 06:12:35 -30.07, -75.79 29.45 531
3 06/12/2015 07:10:41 29.07, 91.78 06/12/2015 07:03:07 29.08, 91.77 0.30 454
4 06/12/2015 07:52:23 -1.30, -94.27 06/12/2015 07:45:54 -1.30, -94.27 0.03 389
5 06/12/2015 08:38:31 -10.95, 75.97 06/12/2015 08:33:15 -10.97, 75.78 20.91 316
6 06/12/2015 09:26:39 15.45,-115.38 06/12/2015 09:22:38 15.51,-115.83 49.08 241
7 06/12/2015 10:14:54 -20.00, 53.28 06/12/2015 10:12:08 -20.17, 52.58 75.69 166
8 06/12/2015 11:03:02 24.50,-138.00 06/12/2015 11:01:31 24.71,-138.96 99.66 91
9 06/14/2015 21:48:31 29.95,-127.85 06/14/2015 21:38:48 30.06,-127.36 49.45 583
10 06/14/2015 22:37:54 -29.95, 39.80 06/14/2015 22:29:28 -30.00, 39.99 19.03 506
11 06/14/2015 23:24:29 19.41,-150.00 06/14/2015 23:17:16 19.40,-149.99 1.08 433
12 06/15/2015 00:06:21 7.80, 23.55 06/15/2015 00:00:13 7.82, 23.54 2.42 368
13 06/15/2015 00:54:36 -12.37,-167.84 06/15/2015 00:49:44 -12.44,-168.11 30.72 292
14 06/15/2015 01:42:43 16.93, 0.83 06/15/2015 01:39:06 17.04, 0.29 58.29 217
15 06/15/2015 02:30:58 -21.47, 169.50 06/15/2015 02:28:37 -21.64, 168.70 84.32 141
16 06/17/2015 14:04:59 29.96, -11.98 06/17/2015 13:55:42 30.06, -11.59 38.88 557
17 06/17/2015 14:54:22 -29.96, 155.68 06/17/2015 14:46:22 -30.00, 155.76 8.74 480
18 06/17/2015 15:38:28 10.42, -32.12 06/17/2015 15:31:37 10.42, -32.12 0.08 411
19 06/17/2015 16:22:24 9.30, 139.75 06/17/2015 16:16:41 9.35, 139.65 12.01 343
20 06/17/2015 17:10:38 -13.93, -51.62 06/17/2015 17:06:11 -14.02, -51.98 40.66 267
21 06/17/2015 17:58:46 18.42, 117.05 06/17/2015 17:55:34 18.56, 116.43 67.68 192
22 06/17/2015 18:47:00 -23.03, -74.25 06/17/2015 18:45:04 -23.21, -75.14 92.77 116
23 06/20/2015 05:31:56 -29.96, -63.72 06/20/2015 05:21:56 -30.58, -63.26 82.24 600
24 06/20/2015 06:21:26 29.95, 103.91 </
